EW5954 Weather Reports


Display with metric or nautical units.
time (UTC)temp
F
wind
direction
speed
MPH
gust
MPH
rain 1hr
in
rain 24hr
in
rain mn
in
humidity
%
barometer
mb
20260902113458 70 342 0.0 0.0 0.00 0.00 0.00 99
20260902112957 70 343 0.0 1.0 0.00 0.00 0.00 99
20260902112453 70 355 0.0 0.0 0.00 0.00 0.00 99
20260902111949 70 354 0.0 1.0 0.00 0.00 0.00 99
20260902111446 70 345 1.0 3.0 0.00 0.00 0.00 99
20260902110941 70 353 1.0 1.0 0.00 0.00 0.00 99
20260902110437 70 354 0.0 0.0 0.00 0.00 0.00 99
20260902105932 70 359 0.0 1.0 0.00 0.00 0.00 99
20260902105427 70 19 0.0 2.0 0.00 0.00 0.00 99
20260902104921 70 358 0.0 0.0 0.00 0.00 0.00 99
20260902104418 70 3 0.0 0.0 0.00 0.00 0.00 99
20260902103917 70 356 0.0 0.0 0.00 0.00 0.00 99
20260902103412 70 357 0.0 0.0 0.00 0.00 0.00 99
20260902102908 70 351 0.0 0.0 0.00 0.00 0.00 99
20260902102405 69 341 0.0 0.0 0.00 0.00 0.00 99
20260902101901 69 2 0.0 0.0 0.00 0.00 0.00 99
20260902101355 69 351 0.0 2.0 0.00 0.00 0.00 99
20260902100854 69 342 0.0 0.0 0.00 0.00 0.00 99
20260902100354 69 341 0.0 0.0 0.00 0.00 0.00 99
20260902095849 69 338 0.0 1.0 0.00 0.00 0.00 99
20260902095349 69 352 0.0 0.0 0.00 0.00 0.00 99
20260902094843 69 322 0.0 0.0 0.00 0.00 0.00 99
20260902094340 69 352 0.0 0.0 0.00 0.00 0.00 99
20260902093838 69 357 0.0 0.0 0.00 0.00 0.00 99
20260902093334 69 348 0.0 0.0 0.00 0.00 0.00 99
20260902092832 69 330 0.0 0.0 0.00 0.00 0.00 99
20260902092329 69 350 0.0 0.0 0.00 0.00 0.00 99
20260902091823 69 341 0.0 0.0 0.00 0.00 0.00 99
20260902091319 69 340 0.0 0.0 0.00 0.00 0.00 99
20260902090815 69 349 0.0 1.0 0.00 0.00 0.00 99
20260902090314 69 339 0.0 0.0 0.00 0.00 0.00 99
20260902085813 69 335 0.0 0.0 0.00 0.00 0.00 99
20260902085309 69 356 1.0 2.0 0.00 0.00 0.00 99
20260902084804 69 319 0.0 0.0 0.00 0.00 0.00 99
20260902084301 69 338 0.0 0.0 0.00 0.00 0.00 99
20260902083756 69 339 0.0 0.0 0.00 0.00 0.00 99
20260902083250 69 341 0.0 1.0 0.00 0.00 0.00 99
20260902082745 69 309 0.0 0.0 0.00 0.00 0.00 99
20260902082242 69 264 0.0 2.0 0.00 0.00 0.00 99
20260902081738 69 336 0.0 1.0 0.00 0.00 0.00 99
20260902081233 69 244 2.0 3.0 0.00 0.00 0.00 99
20260902080728 69 300 0.0 1.0 0.00 0.00 0.00 99
20260902080225 69 351 0.0 0.0 0.00 0.00 0.00 99
20260902075724 69 332 0.0 0.0 0.00 0.00 0.00 99
20260902075220 69 342 0.0 0.0 0.00 0.00 0.00 99
20260902074720 69 337 0.0 3.0 0.00 0.00 0.00 99
20260902074216 69 287 0.0 0.0 0.00 0.00 0.00 99
20260902073711 69 330 0.0 0.0 0.00 0.00 0.00 99
20260902073207 69 339 0.0 1.0 0.00 0.00 0.00 99
20260902072703 70 300 0.0 2.0 0.00 0.00 0.00 99
20260902072159 70 283 1.0 2.0 0.00 0.00 0.00 98
20260902071654 70 287 1.0 1.0 0.00 0.00 0.00 98
20260902071149 70 344 0.0 0.0 0.00 0.00 0.00 98
20260902070646 70 324 0.0 1.0 0.00 0.00 0.00 98
20260902070145 70 284 0.0 1.0 0.00 0.00 0.00 98
20260902065644 70 311 1.0 2.0 0.00 0.00 0.00 97
20260902065140 70 321 0.0 1.0 0.00 0.00 0.00 97
20260902064635 70 347 0.0 0.0 0.00 0.00 0.00 97
20260902064131 70 355 0.0 0.0 0.00 0.00 0.00 97
20260902063626 70 276 0.0 2.0 0.00 0.00 0.00 97
20260902063121 70 343 0.0 1.0 0.00 0.00 0.00 96
20260902062619 70 225 0.0 1.0 0.00 0.00 0.00 96
20260902062115 70 352 0.0 0.0 0.00 0.00 0.00 96
20260902061614 70 330 0.0 1.0 0.00 0.00 0.00 96
20260902061110 70 352 0.0 0.0 0.00 0.00 0.00 96
20260902060607 70 354 0.0 0.0 0.00 0.00 0.00 96
20260902055558 70 317 0.0 1.0 0.00 0.00 0.00 95
20260902055054 70 352 0.0 0.0 0.00 0.00 0.00 95
20260902054548 70 265 0.0 2.0 0.00 0.00 0.00 95
20260902054044 70 328 0.0 0.0 0.00 0.00 0.00 95
20260902053539 70 356 0.0 0.0 0.00 0.00 0.00 95
20260902053039 70 349 0.0 0.0 0.00 0.00 0.00 95
20260902052533 70 349 0.0 0.0 0.00 0.00 0.00 95
20260902052030 70 355 0.0 0.0 0.00 0.00 0.00 95
20260902051529 70 342 0.0 1.0 0.00 0.00 0.00 95
20260902051028 70 342 0.0 0.0 0.00 0.00 0.00 95
20260902050523 70 347 0.0 0.0 0.00 0.00 0.00 95
20260902050018 70 354 0.0 0.0 0.00 0.00 0.00 96
20260902045513 70 353 0.0 0.0 0.00 0.00 0.00 96
20260902045010 70 349 0.0 0.0 0.00 0.00 0.00 96
20260902044504 70 340 0.0 0.0 0.00 0.00 0.00 96
20260902044000 70 359 0.0 0.0 0.00 0.00 0.00 96
20260902043455 69 347 0.0 0.0 0.00 0.00 0.00 97
20260902042950 69 355 0.0 0.0 0.00 0.00 0.00 97
20260902042449 69 352 0.0 0.0 0.00 0.00 0.00 97
20260902041944 69 352 0.0 0.0 0.00 0.00 0.00 97
20260902041439 69 2 0.0 0.0 0.00 0.00 0.00 97
20260902040938 69 351 0.0 0.0 0.00 0.00 0.00 98
20260902040433 69 348 0.0 0.0 0.00 0.00 0.00 98
20260902035932 69 314 0.0 0.0 0.00 0.00 0.00 98
20260902035427 69 349 0.0 1.0 0.00 0.00 0.00 98
20260902034927 69 354 0.0 0.0 0.00 0.00 0.00 98
20260902034422 69 354 0.0 0.0 0.00 0.00 0.00 98
20260902033921 69 345 0.0 0.0 0.00 0.00 0.00 98
20260902033415 69 351 0.0 0.0 0.00 0.00 0.00 98
20260902032914 69 344 0.0 1.0 0.00 0.00 0.00 98
20260902032408 68 356 0.0 1.0 0.00 0.00 0.00 98
20260902031903 68 7 0.0 0.0 0.00 0.00 0.00 98
20260902031359 68 351 0.0 0.0 0.00 0.00 0.00 98
20260902030855 68 337 0.0 0.0 0.00 0.00 0.00 98
20260902030349 68 235 0.0 2.0 0.00 0.00 0.00 98
20260902025848 68 340 0.0 0.0 0.00 0.00 0.00 99
20260902025344 68 358 0.0 0.0 0.00 0.00 0.00 99
20260902024838 68 322 0.0 0.0 0.00 0.00 0.00 99
20260902024334 68 324 0.0 2.0 0.00 0.00 0.00 99
20260902023829 68 257 1.0 2.0 0.00 0.00 0.00 99
20260902023325 68 327 0.0 2.0 0.00 0.00 0.00 99
20260902022823 68 233 0.0 0.0 0.00 0.00 0.00 99
20260902022319 68 251 0.0 1.0 0.00 0.00 0.00 99
20260902021815 68 328 2.0 3.0 0.00 0.00 0.00 98
20260902021309 68 277 1.0 3.0 0.00 0.00 0.00 98
20260902020805 68 293 1.0 3.0 0.00 0.00 0.00 98
20260902020301 68 291 1.0 6.0 0.00 0.00 0.00 98
20260902015756 68 241 3.0 5.0 0.00 0.00 0.00 98
20260902015252 68 331 1.0 2.0 0.00 0.00 0.00 98
20260902014748 69 279 0.0 3.0 0.00 0.00 0.00 98
20260902014244 69 357 0.0 1.0 0.00 0.00 0.00 98
20260902013743 69 300 1.0 3.0 0.00 0.00 0.00 98
20260902013238 69 237 1.0 2.0 0.00 0.00 0.00 97
20260902012733 69 276 2.0 3.0 0.00 0.00 0.00 97
20260902012230 69 298 0.0 3.0 0.00 0.00 0.00 97
20260902011724 69 318 1.0 1.0 0.00 0.00 0.00 97
20260902011223 69 339 2.0 3.0 0.00 0.00 0.00 96
20260902010718 69 218 3.0 3.0 0.00 0.00 0.00 96
20260902010214 69 257 1.0 1.0 0.00 0.00 0.00 96
20260902005711 69 276 1.0 3.0 0.00 0.00 0.00 96
20260902005207 70 245 2.0 2.0 0.00 0.00 0.00 96
20260902004702 70 325 0.0 1.0 0.00 0.00 0.00 96
20260902004202 70 331 0.0 1.0 0.00 0.00 0.00 96
20260902003652 70 236 2.0 5.0 0.00 0.00 0.00 95
20260902003147 70 281 0.0 2.0 0.00 0.00 0.00 95
20260902002642 70 198 1.0 3.0 0.00 0.00 0.00 95
20260902002136 71 197 1.0 2.0 0.00 0.00 0.00 94
20260901234826 73 303 2.0 2.0 0.00 0.00 0.00 90
20260901234322 73 303 2.0 2.0 0.00 0.00 0.00 90
20260901233815 73 337 1.0 2.0 0.00 0.00 0.00 90
20260901233311 73 274 1.0 3.0 0.00 0.00 0.00 90
20260901232806 74 265 1.0 3.0 0.00 0.00 0.00 89
20260901232255 74 321 0.0 3.0 0.00 0.00 0.00 89
20260901231751 74 325 2.0 3.0 0.00 0.00 0.00 89
20260901231242 74 301 2.0 3.0 0.00 0.00 0.00 88
20260901230738 74 276 1.0 2.0 0.00 0.00 0.00 88
20260901230237 74 289 1.0 3.0 0.00 0.00 0.00 88
20260901225733 75 329 1.0 3.0 0.00 0.00 0.00 87
20260901225227 75 329 1.0 2.0 0.00 0.00 0.00 87
20260901224723 75 298 1.0 2.0 0.00 0.00 0.00 87
20260901224219 75 268 2.0 2.0 0.00 0.00 0.00 87
20260901223715 75 283 1.0 2.0 0.00 0.00 0.00 86
20260901223209 75 273 1.0 2.0 0.00 0.00 0.00 86
20260901222706 76 342 0.0 3.0 0.00 0.00 0.00 85
20260901222201 76 314 1.0 2.0 0.00 0.00 0.00 85
20260901221657 76 340 1.0 2.0 0.00 0.00 0.00 85
20260901221153 76 224 2.0 5.0 0.00 0.00 0.00 86
20260901220652 76 304 1.0 5.0 0.00 0.00 0.00 85
20260901220152 76 228 3.0 6.0 0.00 0.00 0.00 85
20260901215650 76 255 2.0 7.0 0.00 0.00 0.00 85
20260901215145 76 326 2.0 6.0 0.00 0.00 0.00 85
20260901214642 77 250 4.0 9.0 0.00 0.00 0.00 84
20260901214136 78 231 5.0 7.0 0.00 0.00 0.00 82
20260901213631 78 285 0.0 3.0 0.00 0.00 0.00 83
20260901213126 78 341 2.0 6.0 0.00 0.00 0.00 82
20260901212625 78 192 4.0 5.0 0.00 0.00 0.00 81
20260901212121 79 343 2.0 7.0 0.00 0.00 0.00 81
20260901211616 79 203 4.0 7.0 0.00 0.00 0.00 80
20260901211113 80 242 3.0 5.0 0.00 0.00 0.00 79
20260901210608 80 199 3.0 6.0 0.00 0.00 0.00 78
20260901210104 81 339 2.0 5.0 0.00 0.00 0.00 78
20260901205554 82 282 3.0 7.0 0.00 0.00 0.00 77
20260901205053 82 263 3.0 8.0 0.00 0.00 0.00 78
20260901204550 84 0 2.0 7.0 0.00 0.00 0.00 76
20260901204045 83 213 3.0 6.0 0.00 0.00 0.00 76
20260901203539 84 267 2.0 6.0 0.00 0.00 0.00 75
20260901203034 84 257 3.0 6.0 0.00 0.00 0.00 75
20260901202529 84 342 1.0 3.0 0.00 0.00 0.00 75
20260901202025 84 336 3.0 5.0 0.00 0.00 0.00 76
20260901201520 84 329 3.0 7.0 0.00 0.00 0.00 76
20260901201014 84 330 3.0 6.0 0.00 0.00 0.00 76
20260901200508 83 333 1.0 6.0 0.00 0.00 0.00 76
20260901200008 84 265 4.0 7.0 0.00 0.00 0.00 76
20260901195506 84 194 2.0 8.0 0.00 0.00 0.00 76
20260901195006 84 208 3.0 6.0 0.00 0.00 0.00 76
20260901194501 85 196 2.0 6.0 0.00 0.00 0.00 75
20260901193957 85 284 3.0 8.0 0.00 0.00 0.00 75
20260901193456 85 249 3.0 5.0 0.00 0.00 0.00 74
20260901192956 85 321 2.0 5.0 0.00 0.00 0.00 75
20260901192452 86 267 3.0 5.0 0.00 0.00 0.00 73
20260901191948 86 261 2.0 3.0 0.00 0.00 0.00 73
20260901191446 86 324 1.0 3.0 0.00 0.00 0.00 73
20260901190939 85 345 1.0 3.0 0.00 0.00 0.00 73
20260901190434 85 283 1.0 3.0 0.00 0.00 0.00 75
20260901185932 85 238 3.0 5.0 0.00 0.00 0.00 74
20260901185432 84 290 2.0 3.0 0.00 0.00 0.00 76
20260901184926 85 276 4.0 7.0 0.00 0.00 0.00 74
20260901184421 84 341 1.0 5.0 0.00 0.00 0.00 76
20260901183917 84 347 0.0 3.0 0.00 0.00 0.00 78
20260901183416 83 265 3.0 5.0 0.00 0.00 0.00 78
20260901182912 82 278 3.0 5.0 0.00 0.00 0.00 78
20260901182407 82 264 2.0 5.0 0.00 0.00 0.00 80
20260901181902 82 313 1.0 5.0 0.00 0.00 0.00 79
20260901181357 83 294 3.0 5.0 0.00 0.00 0.00 78
20260901180856 82 177 1.0 5.0 0.00 0.00 0.00 78
20260901180355 82 224 3.0 5.0 0.00 0.00 0.00 78
20260901175853 82 243 3.0 6.0 0.00 0.00 0.00 79
20260901175348 81 198 4.0 6.0 0.00 0.00 0.00 79
20260901174844 82 217 5.0 8.0 0.00 0.00 0.00 79
20260901174339 82 245 4.0 7.0 0.00 0.00 0.00 80
20260901173835 81 248 4.0 6.0 0.00 0.00 0.00 80
20260901173329 81 321 3.0 7.0 0.00 0.00 0.00 81
20260901172826 84 261 4.0 6.0 0.00 0.00 0.00 77
20260901172325 85 291 0.0 2.0 0.00 0.00 0.00 76
20260901171823 85 301 1.0 2.0 0.00 0.00 0.00 75
20260901171323 86 40 0.0 1.0 0.00 0.00 0.00 72
20260901170822 86 351 0.0 1.0 0.00 0.00 0.00 73
20260901170317 85 353 0.0 0.0 0.00 0.00 0.00 74
20260901165816 85 352 0.0 1.0 0.00 0.00 0.00 74
20260901165310 85 355 0.0 1.0 0.00 0.00 0.00 73
20260901164807 85 359 0.0 0.0 0.00 0.00 0.00 73
20260901164302 85 349 0.0 2.0 0.00 0.00 0.00 74
20260901163756 85 23 1.0 2.0 0.00 0.00 0.00 73
20260901163250 85 349 0.0 1.0 0.00 0.00 0.00 74
20260901162745 84 323 0.0 0.0 0.00 0.00 0.00 76
20260901162245 84 342 0.0 1.0 0.00 0.00 0.00 75
20260901161743 84 17 0.0 2.0 0.00 0.00 0.00 75
20260901161238 84 351 0.0 0.0 0.00 0.00 0.00 75
20260901160734 85 349 0.0 1.0 0.00 0.00 0.00 74
20260901160230 85 343 0.0 2.0 0.00 0.00 0.00 75
20260901155729 85 352 1.0 2.0 0.00 0.00 0.00 74
20260901155224 85 8 0.0 2.0 0.00 0.00 0.00 74
20260901154719 86 352 1.0 2.0 0.00 0.00 0.00 73
20260901154214 87 338 0.0 1.0 0.00 0.00 0.00 72
20260901153710 86 331 0.0 0.0 0.00 0.00 0.00 74
20260901153204 85 36 0.0 3.0 0.00 0.00 0.00 73
20260901152658 85 348 0.0 1.0 0.00 0.00 0.00 72
20260901152157 85 320 1.0 1.0 0.00 0.00 0.00 71
20260901151652 84 344 0.0 2.0 0.00 0.00 0.00 75
20260901151151 83 329 0.0 2.0 0.00 0.00 0.00 76
20260901150646 82 335 0.0 3.0 0.00 0.00 0.00 76
20260901150144 83 330 2.0 3.0 0.00 0.00 0.00 74
20260901145642 83 349 1.0 2.0 0.00 0.00 0.00 75
20260901145141 82 331 0.0 2.0 0.00 0.00 0.00 79
20260901144637 82 311 1.0 1.0 0.00 0.00 0.00 76
20260901144132 83 0 1.0 2.0 0.00 0.00 0.00 75
20260901143627 83 352 0.0 0.0 0.00 0.00 0.00 75
20260901143124 83 343 0.0 1.0 0.00 0.00 0.00 77
20260901142619 83 316 0.0 0.0 0.00 0.00 0.00 77
20260901142113 82 344 0.0 1.0 0.00 0.00 0.00 77
20260901141608 83 282 1.0 1.0 0.00 0.00 0.00 77
20260901141103 81 316 0.0 0.0 0.00 0.00 0.00 78
20260901140602 80 354 0.0 1.0 0.00 0.00 0.00 79
20260901135601 80 328 0.0 2.0 0.00 0.00 0.00 81
20260901135056 79 353 0.0 0.0 0.00 0.00 0.00 82
20260901134552 79 349 0.0 1.0 0.00 0.00 0.00 82
20260901134047 79 359 0.0 1.0 0.00 0.00 0.00 83
20260901133546 78 22 0.0 2.0 0.00 0.00 0.00 84
20260901133044 78 222 0.0 1.0 0.00 0.00 0.00 82
20260901132539 78 344 0.0 0.0 0.00 0.00 0.00 84
20260901132039 77 336 0.0 0.0 0.00 0.00 0.00 85
20260901131538 77 319 1.0 1.0 0.00 0.00 0.00 85
20260901131029 77 353 0.0 1.0 0.00 0.00 0.00 86
20260901130528 77 341 0.0 0.0 0.00 0.00 0.00 87
20260901130027 76 347 0.0 2.0 0.00 0.00 0.00 88
20260901125526 76 1 0.0 1.0 0.00 0.00 0.00 87
20260901125021 76 345 0.0 1.0 0.00 0.00 0.00 87
20260901124516 76 338 0.0 1.0 0.00 0.00 0.00 88
20260901124016 75 344 0.0 1.0 0.00 0.00 0.00 89
20260901123510 74 351 0.0 1.0 0.00 0.00 0.00 90
20260901123009 74 359 0.0 1.0 0.00 0.00 0.00 90
20260901122503 74 347 0.0 0.0 0.00 0.00 0.00 91
20260901122002 73 1 0.0 0.0 0.00 0.00 0.00 91
20260901121457 73 352 0.0 1.0 0.00 0.00 0.00 92
20260901120952 73 13 0.0 1.0 0.00 0.00 0.00 92
20260901120447 73 12 0.0 0.0 0.00 0.00 0.00 93
20260901115942 72 347 0.0 0.0 0.00 0.00 0.00 94
20260901115443 72 347 0.0 0.0 0.00 0.00 0.00 95
20260901114940 71 13 0.0 2.0 0.00 0.00 0.00 97
20260901114435 70 2 0.0 1.0 0.00 0.00 0.00 98
20260901113933 70 359 1.0 2.0 0.00 0.00 0.00 98